FW9987 Weather Reports


Display with metric or nautical units.
time (UTC)temp
F
wind
direction
speed
MPH
gust
MPH
rain 1hr
in
rain 24hr
in
rain mn
in
humidity
%
barometer
mb
20260505080100 37 306 3.0 5.0 0.00 0.00 0.00 85 1016.0
20260505074550 37 221 0.0 2.0 0.00 0.00 0.00 84 1015.9
20260505073057 37 0 1.0 4.0 0.00 0.00 0.00 84 1015.9
20260505071555 37 171 2.0 6.0 0.00 0.00 0.00 83 1016.0
20260505070053 37 305 1.0 6.0 0.00 0.00 0.00 83 1016.0
20260505064702 38 277 3.0 5.0 0.00 0.00 0.00 82 1016.1
20260505063053 38 190 2.0 7.0 0.00 0.00 0.00 81 1016.3
20260505061552 39 252 2.0 6.0 0.00 0.00 0.00 79 1016.4
20260505060050 39 300 2.0 7.0 0.00 0.00 0.00 78 1016.0
20260505054552 40 214 3.0 7.0 0.00 0.00 0.00 75 1016.1
20260505053057 40 0 0.0 2.0 0.00 0.00 0.00 74 1016.1
20260505051549 39 0 1.0 4.0 0.00 0.00 0.00 76 1016.1
20260505041556 38 20 5.0 9.0 0.00 0.00 0.00 84 1015.9
20260505034606 37 46 4.0 11.0 0.00 0.00 0.00 86 1015.8
20260505033051 36 43 6.0 10.0 0.00 0.00 0.00 88 1015.6
20260505031548 37 94 7.0 11.0 0.00 0.00 0.00 86 1015.5
20260505024610 38 355 5.0 15.0 0.00 0.00 0.00 82 1015.5
20260505023050 39 74 6.0 14.0 0.00 0.00 0.00 77 1015.4
20260505021550 40 49 5.0 11.0 0.00 0.00 0.00 75 1015.1
20260505014551 41 5 7.0 12.0 0.00 0.00 0.00 71 1015.4
20260505013050 43 88 3.0 11.0 0.00 0.00 0.00 64 1015.1
20260505011550 47 226 5.0 11.0 0.00 0.00 0.00 51 1014.8
20260505010107 48 209 4.0 10.0 0.00 0.00 0.00 50 1014.6
20260505004605 48 211 4.0 10.0 0.00 0.00 0.00 49 1014.6
20260505003058 49 246 3.0 12.0 0.00 0.00 0.00 49 1014.7
20260505001552 50 207 5.0 14.0 0.00 0.00 0.00 46 1014.5
20260505000104 50 195 8.0 15.0 0.00 0.00 0.00 43 1014.5
20260504234555 51 208 7.0 15.0 0.00 0.00 0.00 41 1014.6
20260504233051 51 215 5.0 15.0 0.00 0.00 0.00 43 1014.6
20260504231620 51 219 7.0 21.0 0.00 0.00 0.00 47 1014.5
20260504230053 51 257 8.0 20.0 0.00 0.00 0.00 47 1014.5
20260504224550 51 189 8.0 21.0 0.00 0.00 0.00 48 1014.6
20260504223054 51 197 11.0 24.0 0.00 0.00 0.00 47 1014.6
20260504221632 54 269 9.0 19.0 0.00 0.00 0.00 41 1014.5
20260504220057 53 220 10.0 19.0 0.00 0.00 0.00 40 1014.7
20260504214550 55 217 6.0 15.0 0.00 0.00 0.00 39 1015.0
20260504213059 55 209 6.0 22.0 0.00 0.00 0.00 36 1015.0
20260504211555 55 270 12.0 20.0 0.00 0.00 0.00 33 1015.0
20260504210054 56 207 10.0 18.0 0.00 0.00 0.00 35 1014.9
20260504204552 55 210 11.0 19.0 0.00 0.00 0.00 34 1015.2
20260504203053 52 182 2.0 10.0 0.00 0.00 0.00 40 1015.3
20260504201555 54 216 7.0 14.0 0.00 0.00 0.00 39 1015.8
20260504200055 54 187 5.0 13.0 0.00 0.00 0.00 41 1015.8
20260504194602 53 213 6.0 15.0 0.00 0.00 0.00 43 1015.9
20260504193050 51 253 4.0 17.0 0.00 0.00 0.00 47 1016.1
20260504191618 51 188 8.0 19.0 0.00 0.00 0.00 48 1016.4
20260504190053 51 225 12.0 27.0 0.00 0.00 0.00 48 1016.4
20260504184601 55 186 8.0 15.0 0.00 0.00 0.00 32 1016.0
20260504183050 54 311 10.0 19.0 0.00 0.00 0.00 33 1016.1
20260504181546 55 227 6.0 17.0 0.00 0.00 0.00 32 1016.2
20260504180051 55 259 9.0 18.0 0.00 0.00 0.00 34 1016.3
20260504174548 54 254 8.0 19.0 0.00 0.00 0.00 35 1016.6
20260504173047 53 176 8.0 19.0 0.00 0.00 0.00 35 1016.6
20260504171546 53 337 9.0 19.0 0.00 0.00 0.00 36 1017.1
20260504140103 44 239 7.0 14.0 0.00 0.00 0.00 53 1018.4
20260504081552 40 0 0.0 2.0 0.00 0.00 0.00 46 1018.2